TimePST,TemperatureF,Dew PointF,Humidity,Sea Level PressureIn,VisibilityMPH,Wind Direction,Wind SpeedMPH,Gust SpeedMPH,PrecipitationIn,Events,Conditions,WindDirDegrees,DateUTC
12:53 AM,24.1,23.0,96,30.32,0.2,NE,3.5,-,N/A,Fog,Light Freezing Fog,50,2013-12-30 08:53:00
1:53 AM,26.1,24.1,92,30.32,0.2,NE,4.6,-,N/A,Fog,Light Freezing Fog,50,2013-12-30 09:53:00
2:53 AM,25.0,24.1,96,30.32,0.2,Calm,Calm,-,N/A,Fog,Light Freezing Fog,0,2013-12-30 10:53:00
3:53 AM,26.1,25.0,96,30.31,0.2,ENE,4.6,-,N/A,Fog,Light Freezing Fog,60,2013-12-30 11:53:00
4:53 AM,26.1,24.1,92,30.31,0.2,NE,3.5,-,N/A,Fog,Light Freezing Fog,50,2013-12-30 12:53:00
5:53 AM,26.1,24.1,92,30.31,0.2,NE,5.8,-,N/A,Fog,Light Freezing Fog,50,2013-12-30 13:53:00
6:53 AM,26.1,24.1,92,30.30,0.2,ENE,4.6,-,N/A,,Overcast,60,2013-12-30 14:53:00
7:53 AM,25.0,23.0,92,30.27,0.2,Calm,Calm,-,N/A,,Overcast,0,2013-12-30 15:53:00
7:57 AM,24.8,23.0,93,30.20,2.0,Calm,Calm,-,N/A,,Overcast,0,2013-12-30 15:57:00
8:23 AM,26.6,23.0,86,30.20,1.0,Calm,Calm,-,N/A,,Overcast,0,2013-12-30 16:23:00
8:53 AM,26.1,24.1,92,30.28,0.8,NE,4.6,-,N/A,,Overcast,40,2013-12-30 16:53:00
9:41 AM,26.6,24.8,93,30.21,1.5,NE,4.6,-,N/A,,Overcast,40,2013-12-30 17:41:00
9:53 AM,26.1,25.0,96,30.29,2.0,NE,4.6,-,N/A,,Overcast,50,2013-12-30 17:53:00
10:53 AM,27.0,25.0,92,30.27,7.0,NE,3.5,-,N/A,Fog,Patches of Fog,40,2013-12-30 18:53:00
11:53 AM,28.0,26.1,92,30.24,8.0,NE,4.6,-,N/A,Fog,Patches of Fog,50,2013-12-30 19:53:00
12:53 PM,28.9,27.0,92,30.21,8.0,ENE,3.5,-,N/A,Fog,Patches of Fog,60,2013-12-30 20:53:00
1:53 PM,30.0,28.0,92,30.19,6.0,Calm,Calm,-,N/A,,Overcast,0,2013-12-30 21:53:00
2:53 PM,30.0,28.0,92,30.19,6.0,Calm,Calm,-,0.00,Rain,Light Freezing Rain,0,2013-12-30 22:53:00
3:01 PM,30.2,28.4,93,30.11,5.0,Calm,Calm,-,0.00,Rain,Light Freezing Rain,0,2013-12-30 23:01:00
3:39 PM,30.2,28.4,93,30.10,6.0,ENE,4.6,-,0.01,,Overcast,60,2013-12-30 23:39:00
3:53 PM,28.9,28.0,96,30.18,6.0,NE,4.6,-,0.01,,Overcast,50,2013-12-30 23:53:00
4:53 PM,28.9,27.0,92,30.17,8.0,Calm,Calm,-,N/A,,Overcast,0,2013-12-31 00:53:00
4:56 PM,28.4,26.6,93,30.09,8.0,Calm,Calm,-,N/A,,Overcast,0,2013-12-31 00:56:00
5:11 PM,28.4,28.4,100,30.09,8.0,Calm,Calm,-,N/A,,Overcast,0,2013-12-31 01:11:00
5:53 PM,30.0,28.0,92,30.17,7.0,Calm,Calm,-,N/A,,Overcast,0,2013-12-31 01:53:00
6:12 PM,30.2,28.4,93,30.09,6.0,SSE,3.5,-,0.00,Rain,Light Freezing Rain,150,2013-12-31 02:12:00
6:53 PM,30.9,28.9,92,30.16,8.0,South,4.6,-,0.00,,Overcast,180,2013-12-31 02:53:00
7:53 PM,30.9,28.9,92,30.15,10.0,South,8.1,-,N/A,,Overcast,180,2013-12-31 03:53:00
8:53 PM,30.0,28.0,92,30.14,10.0,South,5.8,-,N/A,,Overcast,190,2013-12-31 04:53:00
9:41 PM,28.4,26.6,93,30.09,8.0,South,6.9,-,N/A,,Overcast,180,2013-12-31 05:41:00
9:53 PM,30.0,27.0,88,30.15,8.0,South,6.9,-,N/A,,Overcast,170,2013-12-31 05:53:00
10:09 PM,30.2,28.4,93,30.09,8.0,South,3.5,-,N/A,,Overcast,180,2013-12-31 06:09:00
10:53 PM,30.0,28.0,92,30.16,7.0,SSE,3.5,-,N/A,,Overcast,160,2013-12-31 06:53:00
11:43 PM,30.2,28.4,93,30.07,10.0,South,6.9,-,N/A,,Overcast,180,2013-12-31 07:43:00
11:53 PM,30.0,28.0,92,30.15,10.0,Calm,Calm,-,N/A,,Overcast,0,2013-12-31 07:53:00